AEE344 SARC-SAZM

Flight info

Callsign AEE344
Flight time 1h 36m
Altitude 38000
Route KILIP2M KILIP UL793 GUA DCT EZE UW29 GBE/N0447F390 UW29 VOTRA VOTRA2U
Aircraft B738/M-SDE2E3FGHIRWXY/LB1

Departure

Time 2026-04-24 19:55
Airport Corrientes Airport (SARC)

Arrival

Time 2026-04-24 21:32
Airport Ástor Piazzola International Airport (SAZM)
Time Latitude Longitude Altitude Speed Heading
2026-04-24 19:19 -27.44799 -58.75805 213 ft 0 kts
2026-04-24 19:40 -27.44811 -58.75807 214 ft 4 kts
2026-04-24 19:40 -27.44838 -58.75811 215 ft 4 kts
2026-04-24 19:41 -27.44859 -58.75815 219 ft 0 kts
2026-04-24 19:45 -27.44858 -58.75815 220 ft 1 kts
2026-04-24 19:46 -27.44834 -58.75822 215 ft 3 kts 321°
2026-04-24 19:46 -27.44820 -58.75844 216 ft 4 kts 299°
2026-04-24 19:46 -27.44813 -58.75870 216 ft 3 kts 283°
2026-04-24 19:46 -27.44812 -58.75895 213 ft 3 kts 270°
2026-04-24 19:47 -27.44812 -58.75922 213 ft 4 kts 269°
2026-04-24 19:47 -27.44811 -58.75958 213 ft 5 kts 274°
2026-04-24 19:47 -27.44806 -58.76005 213 ft 7 kts 276°
2026-04-24 19:47 -27.44798 -58.76067 217 ft 9 kts 278°
2026-04-24 19:48 -27.44791 -58.76125 213 ft 7 kts 277°
2026-04-24 19:48 -27.44781 -58.76189 214 ft 6 kts 298°
2026-04-24 19:48 -27.44697 -58.76202 210 ft 8 kts
2026-04-24 19:49 -27.44580 -58.76185 216 ft 9 kts
2026-04-24 19:49 -27.44437 -58.76163 219 ft 11 kts
2026-04-24 19:50 -27.44223 -58.76128 216 ft 12 kts
2026-04-24 19:50 -27.44115 -58.76108 220 ft 12 kts 12°
2026-04-24 19:51 -27.43965 -58.76086 213 ft 14 kts
2026-04-24 19:51 -27.43865 -58.76073 218 ft 13 kts
2026-04-24 19:52 -27.43708 -58.76060 216 ft 4 kts 343°
2026-04-24 19:52 -27.43703 -58.76060 220 ft 1 kts
2026-04-24 19:52 -27.43701 -58.76058 219 ft 0 kts 25°
2026-04-24 19:52 -27.43701 -58.76055 213 ft 1 kts 60°
2026-04-24 19:53 -27.43702 -58.76051 213 ft 1 kts 99°
2026-04-24 19:53 -27.43708 -58.76046 220 ft 1 kts 141°
2026-04-24 19:53 -27.43721 -58.76037 213 ft 0 kts 150°
2026-04-24 19:54 -27.43723 -58.76037 213 ft 0 kts 163°
2026-04-24 19:54 -27.43724 -58.76038 213 ft 0 kts 181°
2026-04-24 19:54 -27.43729 -58.76042 214 ft 2 kts 208°
2026-04-24 19:54 -27.43753 -58.76053 216 ft 5 kts 194°
2026-04-24 19:55 -27.43787 -58.76060 215 ft 10 kts 187°
2026-04-24 19:55 -27.44294 -58.76140 214 ft 109 kts 187°
2026-04-24 19:55 -27.45282 -58.76279 310 ft 168 kts 184°
2026-04-24 19:55 -27.46418 -58.76413 1402 ft 155 kts 186°
2026-04-24 19:56 -27.47528 -58.76565 2323 ft 168 kts 189°
2026-04-24 19:56 -27.48769 -58.76803 2790 ft 198 kts 186°
2026-04-24 19:56 -27.50237 -58.76836 3216 ft 220 kts 181°
2026-04-24 19:56 -27.51855 -58.76838 3516 ft 243 kts 182°
2026-04-24 19:57 -27.53580 -58.76837 4119 ft 250 kts 182°
2026-04-24 19:57 -27.55343 -58.76818 4766 ft 255 kts 182°
2026-04-24 19:57 -27.57156 -58.76792 5272 ft 271 kts 184°
2026-04-24 19:57 -27.59081 -58.76870 5963 ft 281 kts 187°
2026-04-24 19:58 -27.61030 -58.76974 6795 ft 286 kts 187°
2026-04-24 19:58 -27.63035 -58.77076 7569 ft 291 kts 187°
2026-04-24 19:58 -27.65073 -58.77171 8371 ft 295 kts 187°
2026-04-24 19:58 -27.67143 -58.77261 9192 ft 300 kts 187°
2026-04-24 19:59 -27.69243 -58.77350 10021 ft 304 kts 187°
2026-04-24 19:59 -27.71370 -58.77438 10830 ft 306 kts 187°
2026-04-24 19:59 -27.73513 -58.77526 11616 ft 310 kts 187°
2026-04-24 19:59 -27.75681 -58.77616 12366 ft 313 kts 187°
2026-04-24 20:00 -27.77864 -58.77705 13131 ft 316 kts 187°
2026-04-24 20:00 -27.80076 -58.77796 13875 ft 321 kts 187°
2026-04-24 20:00 -27.82380 -58.77896 14155 ft 341 kts 187°
2026-04-24 20:00 -27.84790 -58.77999 14631 ft 351 kts 187°
2026-04-24 20:01 -27.87245 -58.78100 15296 ft 354 kts 187°
2026-04-24 20:01 -27.89716 -58.78199 15985 ft 357 kts 187°
2026-04-24 20:01 -27.92215 -58.78299 16631 ft 361 kts 187°
2026-04-24 20:01 -27.94700 -58.78400 17258 ft 365 kts 187°
2026-04-24 20:02 -27.97250 -58.78505 17874 ft 369 kts 188°
2026-04-24 20:02 -27.99828 -58.78611 18467 ft 373 kts 188°
2026-04-24 20:02 -28.02439 -58.78718 19046 ft 376 kts 188°
2026-04-24 20:02 -28.05071 -58.78827 19612 ft 380 kts 188°
2026-04-24 20:03 -28.07716 -58.78935 20210 ft 382 kts 189°
2026-04-24 20:03 -28.10382 -58.79045 20800 ft 385 kts 189°
2026-04-24 20:03 -28.13074 -58.79156 21361 ft 389 kts 189°
2026-04-24 20:03 -28.15785 -58.79268 21911 ft 392 kts 190°
2026-04-24 20:04 -28.18531 -58.79381 22447 ft 395 kts 190°
2026-04-24 20:04 -28.21290 -58.79495 22970 ft 399 kts 190°
2026-04-24 20:04 -28.24078 -58.79609 23470 ft 402 kts 191°
2026-04-24 20:04 -28.26888 -58.79723 23906 ft 406 kts 191°
2026-04-24 20:05 -28.29716 -58.79839 24348 ft 407 kts 191°
2026-04-24 20:05 -28.32551 -58.79956 24833 ft 408 kts 192°
2026-04-24 20:05 -28.35402 -58.80006 25291 ft 413 kts 188°
2026-04-24 20:05 -28.38289 -58.79851 25749 ft 418 kts 186°
2026-04-24 20:06 -28.41202 -58.79597 26210 ft 421 kts 185°
2026-04-24 20:06 -28.44133 -58.79315 26605 ft 426 kts 186°
2026-04-24 20:06 -28.47130 -58.79036 26690 ft 437 kts 186°
2026-04-24 20:06 -28.50198 -58.78766 26771 ft 447 kts 186°
2026-04-24 20:07 -28.52267 -58.78591 26830 ft 452 kts 186°
2026-04-24 20:07 -28.56512 -58.78243 27002 ft 462 kts 186°
2026-04-24 20:07 -28.59731 -58.77982 27247 ft 465 kts 186°
2026-04-24 20:07 -28.62958 -58.77720 27642 ft 464 kts 186°
2026-04-24 20:08 -28.66167 -58.77458 28165 ft 460 kts 187°
2026-04-24 20:08 -28.69345 -58.77199 28691 ft 457 kts 187°
2026-04-24 20:08 -28.72510 -58.76944 29135 ft 455 kts 188°
2026-04-24 20:08 -28.75667 -58.76694 29535 ft 455 kts 188°
2026-04-24 20:09 -28.78825 -58.76446 29947 ft 454 kts 189°
2026-04-24 20:09 -28.81975 -58.76197 30351 ft 453 kts 189°
2026-04-24 20:09 -28.85117 -58.75948 30693 ft 452 kts 189°
2026-04-24 20:09 -28.88261 -58.75700 30966 ft 454 kts 189°
2026-04-24 20:10 -28.91387 -58.75454 31257 ft 455 kts 189°
2026-04-24 20:10 -28.94550 -58.75204 31591 ft 455 kts 189°
2026-04-24 20:10 -28.97701 -58.74952 31936 ft 455 kts 189°
2026-04-24 20:10 -29.00861 -58.74699 32262 ft 455 kts 189°
2026-04-24 20:11 -29.04023 -58.74447 32567 ft 456 kts 189°
2026-04-24 20:11 -29.07184 -58.74195 32886 ft 456 kts 189°
2026-04-24 20:11 -29.10352 -58.73942 33222 ft 456 kts 189°
2026-04-24 20:11 -29.13515 -58.73688 33538 ft 456 kts 189°
2026-04-24 20:12 -29.16689 -58.73435 33840 ft 456 kts 189°
2026-04-24 20:12 -29.19815 -58.73185 34133 ft 456 kts 189°
2026-04-24 20:12 -29.23025 -58.72926 34442 ft 455 kts 189°
2026-04-24 20:12 -29.26129 -58.72675 34780 ft 453 kts 190°
2026-04-24 20:13 -29.29277 -58.72421 35129 ft 450 kts 190°
2026-04-24 20:13 -29.32393 -58.72171 35435 ft 449 kts 191°
2026-04-24 20:13 -29.35501 -58.71932 35726 ft 444 kts 193°
2026-04-24 20:13 -29.38457 -58.72247 35980 ft 410 kts 211°
2026-04-24 20:14 -29.41021 -58.73381 36285 ft 386 kts 220°
2026-04-24 20:14 -29.43421 -58.74736 36597 ft 382 kts 221°
2026-04-24 20:14 -29.45787 -58.76105 36874 ft 380 kts 221°
2026-04-24 20:14 -29.48148 -58.77466 37165 ft 379 kts 221°
2026-04-24 20:15 -29.50511 -58.78812 37462 ft 377 kts 221°
2026-04-24 20:15 -29.52869 -58.80143 37629 ft 379 kts 221°
2026-04-24 20:15 -29.55223 -58.81469 37656 ft 384 kts 221°
2026-04-24 20:16 -29.60080 -58.84188 37747 ft 392 kts 221°
2026-04-24 20:16 -29.65031 -58.86958 37861 ft 399 kts 220°
2026-04-24 20:16 -29.67702 -58.88083 37961 ft 424 kts 207°
2026-04-24 20:17 -29.70749 -58.88429 38030 ft 455 kts 193°
2026-04-24 20:17 -29.80317 -58.87656 38040 ft 462 kts 191°
2026-04-24 20:18 -29.86701 -58.87060 38036 ft 459 kts 191°
2026-04-24 20:18 -29.93096 -58.86532 38037 ft 457 kts 192°
2026-04-24 20:19 -29.99382 -58.86042 38041 ft 455 kts 192°
2026-04-24 20:19 -30.05705 -58.85553 38042 ft 455 kts 192°
2026-04-24 20:20 -30.12031 -58.85061 38044 ft 455 kts 192°
2026-04-24 20:20 -30.18347 -58.84567 38049 ft 456 kts 192°
2026-04-24 20:21 -30.24689 -58.84070 38046 ft 457 kts 192°
2026-04-24 20:21 -30.31040 -58.83571 38050 ft 459 kts 192°
2026-04-24 20:22 -30.37416 -58.83069 38050 ft 460 kts 192°
2026-04-24 20:22 -30.43814 -58.82561 38056 ft 461 kts 192°
2026-04-24 20:23 -30.50232 -58.82054 38039 ft 463 kts 192°
2026-04-24 20:23 -30.56672 -58.81510 38045 ft 464 kts 192°
2026-04-24 20:24 -30.63121 -58.80944 38049 ft 465 kts 192°
2026-04-24 20:24 -30.69534 -58.80383 38048 ft 465 kts 192°
2026-04-24 20:25 -30.75983 -58.79822 38053 ft 465 kts 192°
2026-04-24 20:25 -30.82432 -58.79260 38052 ft 465 kts 192°
2026-04-24 20:26 -30.88884 -58.78697 38046 ft 464 kts 193°
2026-04-24 20:26 -30.95319 -58.78140 38044 ft 463 kts 193°
2026-04-24 20:27 -31.01741 -58.77632 38051 ft 461 kts 193°
2026-04-24 20:27 -31.08143 -58.77138 38051 ft 461 kts 193°
2026-04-24 20:28 -31.14543 -58.76638 38055 ft 461 kts 193°
2026-04-24 20:28 -31.19875 -58.76218 38058 ft 461 kts 194°
2026-04-24 20:29 -31.26289 -58.75710 38059 ft 462 kts 194°
2026-04-24 20:29 -31.33767 -58.75116 38061 ft 463 kts 194°
2026-04-24 20:30 -31.40213 -58.74603 38059 ft 465 kts 194°
2026-04-24 20:30 -31.46673 -58.74088 38059 ft 465 kts 194°
2026-04-24 20:31 -31.52043 -58.73659 38054 ft 466 kts 194°
2026-04-24 20:31 -31.59624 -58.73053 38055 ft 467 kts 194°
2026-04-24 20:32 -31.66112 -58.72533 38059 ft 468 kts 193°
2026-04-24 20:32 -31.72574 -58.72015 38062 ft 468 kts 193°
2026-04-24 20:33 -31.79088 -58.71491 38067 ft 468 kts 193°
2026-04-24 20:33 -31.85591 -58.70968 38053 ft 468 kts 193°
2026-04-24 20:34 -31.92090 -58.70443 38058 ft 468 kts 192°
2026-04-24 20:34 -31.98582 -58.69919 38055 ft 467 kts 192°
2026-04-24 20:35 -32.05070 -58.69395 38052 ft 467 kts 192°
2026-04-24 20:35 -32.11548 -58.68871 38055 ft 466 kts 192°
2026-04-24 20:36 -32.17982 -58.68349 38064 ft 466 kts 191°
2026-04-24 20:36 -32.24445 -58.67824 38069 ft 466 kts 191°
2026-04-24 20:37 -32.30911 -58.67298 38059 ft 466 kts 191°
2026-04-24 20:37 -32.37381 -58.66769 38058 ft 466 kts 190°
2026-04-24 20:38 -32.43847 -58.66230 38057 ft 466 kts 190°
2026-04-24 20:38 -32.50320 -58.65687 38054 ft 466 kts 190°
2026-04-24 20:39 -32.56797 -58.65142 38053 ft 467 kts 189°
2026-04-24 20:39 -32.63287 -58.64596 38053 ft 467 kts 189°
2026-04-24 20:40 -32.68685 -58.64141 38056 ft 467 kts 189°
2026-04-24 20:40 -32.75176 -58.63594 38046 ft 468 kts 189°
2026-04-24 20:41 -32.81673 -58.63045 38039 ft 468 kts 189°
2026-04-24 20:41 -32.89231 -58.62404 38034 ft 468 kts 189°
2026-04-24 20:42 -32.94687 -58.61940 38028 ft 469 kts 188°
2026-04-24 20:42 -33.01146 -58.61392 38024 ft 468 kts 188°
2026-04-24 20:43 -33.07622 -58.61025 38018 ft 465 kts 191°
2026-04-24 20:43 -33.14087 -58.60802 38036 ft 464 kts 191°
2026-04-24 20:44 -33.20544 -58.60567 38042 ft 465 kts 190°
2026-04-24 20:44 -33.27011 -58.60303 38049 ft 465 kts 190°
2026-04-24 20:45 -33.33487 -58.60025 38055 ft 466 kts 190°
2026-04-24 20:45 -33.39971 -58.59744 38049 ft 466 kts 189°
2026-04-24 20:46 -33.46449 -58.59464 38049 ft 466 kts 189°
2026-04-24 20:46 -33.52933 -58.59184 38047 ft 466 kts 189°
2026-04-24 20:47 -33.59374 -58.58906 38049 ft 466 kts 189°
2026-04-24 20:47 -33.65854 -58.58625 38047 ft 466 kts 189°
2026-04-24 20:48 -33.72334 -58.58345 38052 ft 466 kts 189°
2026-04-24 20:48 -33.78814 -58.58064 38053 ft 466 kts 188°
2026-04-24 20:49 -33.85293 -58.57782 38049 ft 466 kts 188°
2026-04-24 20:49 -33.91771 -58.57500 38047 ft 466 kts 188°
2026-04-24 20:50 -33.98257 -58.57217 38044 ft 465 kts 188°
2026-04-24 20:50 -34.04728 -58.56934 38048 ft 465 kts 188°
2026-04-24 20:51 -34.11192 -58.56651 38048 ft 465 kts 188°
2026-04-24 20:51 -34.17652 -58.56369 38055 ft 464 kts 188°
2026-04-24 20:52 -34.24111 -58.56085 38056 ft 464 kts 188°
2026-04-24 20:52 -34.30570 -58.55802 38056 ft 464 kts 188°
2026-04-24 20:53 -34.37030 -58.55517 38051 ft 464 kts 187°
2026-04-24 20:53 -34.43482 -58.55233 38046 ft 464 kts 187°
2026-04-24 20:54 -34.49928 -58.54948 38057 ft 463 kts 187°
2026-04-24 20:54 -34.56329 -58.54664 38023 ft 463 kts 187°
2026-04-24 20:55 -34.62772 -58.54379 38028 ft 463 kts 187°
2026-04-24 20:55 -34.69217 -58.54092 38030 ft 463 kts 187°
2026-04-24 20:56 -34.75652 -58.53804 38028 ft 463 kts 187°
2026-04-24 20:56 -34.82089 -58.53518 38030 ft 462 kts 187°
2026-04-24 20:57 -34.88531 -58.53110 38027 ft 464 kts 185°
2026-04-24 20:57 -34.94969 -58.52600 38025 ft 464 kts 185°
2026-04-24 20:58 -35.01405 -58.52093 38031 ft 463 kts 185°
2026-04-24 20:58 -35.07838 -58.51604 38030 ft 463 kts 185°
2026-04-24 20:59 -35.14263 -58.51121 38030 ft 462 kts 185°
2026-04-24 20:59 -35.20684 -58.50638 38036 ft 462 kts 185°
2026-04-24 21:00 -35.27066 -58.50157 38037 ft 462 kts 185°
2026-04-24 21:00 -35.33478 -58.49672 38038 ft 462 kts 185°
2026-04-24 21:01 -35.39892 -58.49187 38032 ft 461 kts 185°
2026-04-24 21:01 -35.46290 -58.48701 38030 ft 461 kts 185°
2026-04-24 21:02 -35.52692 -58.48215 38035 ft 461 kts 185°
2026-04-24 21:02 -35.59094 -58.47727 38043 ft 460 kts 185°
2026-04-24 21:03 -35.65490 -58.47238 38046 ft 460 kts 185°
2026-04-24 21:03 -35.71877 -58.46750 38042 ft 460 kts 185°
2026-04-24 21:04 -35.78236 -58.45664 37751 ft 463 kts 174°
2026-04-24 21:04 -35.81350 -58.44667 37189 ft 463 kts 173°
2026-04-24 21:04 -35.84462 -58.43607 36529 ft 465 kts 172°
2026-04-24 21:05 -35.87543 -58.42544 35901 ft 466 kts 172°
2026-04-24 21:05 -35.90667 -58.41474 35315 ft 465 kts 172°
2026-04-24 21:05 -35.93789 -58.40419 34768 ft 464 kts 172°
2026-04-24 21:05 -35.96897 -58.39382 34246 ft 462 kts 172°
2026-04-24 21:06 -35.99998 -58.38356 33671 ft 460 kts 172°
2026-04-24 21:06 -36.03087 -58.37340 32945 ft 460 kts 172°
2026-04-24 21:06 -36.06196 -58.36321 32115 ft 463 kts 172°
2026-04-24 21:06 -36.09324 -58.35297 31299 ft 466 kts 171°
2026-04-24 21:07 -36.12468 -58.34265 30518 ft 468 kts 171°
2026-04-24 21:07 -36.15620 -58.33228 29660 ft 469 kts 171°
2026-04-24 21:07 -36.18780 -58.32186 28724 ft 470 kts 171°
2026-04-24 21:07 -36.21953 -58.31138 27726 ft 472 kts 171°
2026-04-24 21:08 -36.25137 -58.30086 26719 ft 475 kts 170°
2026-04-24 21:08 -36.28341 -58.29027 25701 ft 477 kts 170°
2026-04-24 21:08 -36.31548 -58.27965 24894 ft 475 kts 170°
2026-04-24 21:08 -36.34729 -58.26907 24275 ft 469 kts 169°
2026-04-24 21:09 -36.37857 -58.25865 23664 ft 463 kts 169°
2026-04-24 21:09 -36.40949 -58.24837 22881 ft 458 kts 169°
2026-04-24 21:09 -36.44014 -58.23818 22126 ft 454 kts 169°
2026-04-24 21:09 -36.47050 -58.22809 21400 ft 449 kts 169°
2026-04-24 21:10 -36.50020 -58.21821 20730 ft 445 kts 169°
2026-04-24 21:10 -36.52994 -58.20831 20048 ft 440 kts 169°
2026-04-24 21:10 -36.55936 -58.19850 19444 ft 435 kts 169°
2026-04-24 21:10 -36.58821 -58.18886 19195 ft 421 kts 169°
2026-04-24 21:11 -36.61599 -58.17954 19003 ft 407 kts 169°
2026-04-24 21:11 -36.64308 -58.17048 18523 ft 402 kts 169°
2026-04-24 21:11 -36.67017 -58.16145 17873 ft 402 kts 169°
2026-04-24 21:11 -36.69713 -58.15246 17255 ft 400 kts 169°
2026-04-24 21:12 -36.72393 -58.14351 16704 ft 396 kts 169°
2026-04-24 21:12 -36.74151 -58.13763 16352 ft 394 kts 169°
2026-04-24 21:12 -36.77671 -58.12583 15638 ft 390 kts 169°
2026-04-24 21:12 -36.80281 -58.11707 15098 ft 387 kts 168°
2026-04-24 21:13 -36.82874 -58.10837 14582 ft 385 kts 168°
2026-04-24 21:13 -36.85443 -58.09938 14066 ft 383 kts 165°
2026-04-24 21:13 -36.87939 -58.08760 13545 ft 382 kts 161°
2026-04-24 21:13 -36.90391 -58.07503 13011 ft 379 kts 160°
2026-04-24 21:14 -36.92813 -58.06245 12486 ft 376 kts 160°
2026-04-24 21:14 -36.95194 -58.05006 11976 ft 373 kts 160°
2026-04-24 21:14 -36.97577 -58.03768 11471 ft 370 kts 160°
2026-04-24 21:14 -36.99950 -58.02537 10982 ft 367 kts 160°
2026-04-24 21:15 -37.02304 -58.01321 10507 ft 364 kts 160°
2026-04-24 21:15 -37.04602 -58.00134 10422 ft 350 kts 160°
2026-04-24 21:15 -37.06809 -57.98991 10330 ft 336 kts 160°
2026-04-24 21:15 -37.08925 -57.97889 10248 ft 324 kts 160°
2026-04-24 21:16 -37.10973 -57.96819 10077 ft 315 kts 160°
2026-04-24 21:16 -37.12992 -57.95763 9752 ft 313 kts 160°
2026-04-24 21:16 -37.15000 -57.94713 9425 ft 312 kts 160°
2026-04-24 21:16 -37.17002 -57.93665 9131 ft 311 kts 160°
2026-04-24 21:17 -37.18991 -57.92622 8857 ft 310 kts 160°
2026-04-24 21:17 -37.20977 -57.91579 8581 ft 310 kts 160°
2026-04-24 21:17 -37.22969 -57.90533 8298 ft 312 kts 160°
2026-04-24 21:17 -37.24308 -57.89831 7965 ft 319 kts 160°
2026-04-24 21:18 -37.27074 -57.88383 7289 ft 324 kts 160°
2026-04-24 21:18 -37.29153 -57.87292 7126 ft 327 kts 160°
2026-04-24 21:18 -37.31256 -57.86188 7039 ft 326 kts 160°
2026-04-24 21:18 -37.33341 -57.85090 7010 ft 324 kts 160°
2026-04-24 21:19 -37.35423 -57.83992 7012 ft 325 kts 160°
2026-04-24 21:19 -37.37511 -57.82890 7007 ft 325 kts 160°
2026-04-24 21:19 -37.39572 -57.81805 7005 ft 325 kts 160°
2026-04-24 21:19 -37.41659 -57.80704 7004 ft 325 kts 160°
2026-04-24 21:20 -37.45823 -57.78504 7007 ft 325 kts 160°
2026-04-24 21:20 -37.47907 -57.77404 7006 ft 325 kts 160°
2026-04-24 21:20 -37.49990 -57.76304 7005 ft 325 kts 160°
2026-04-24 21:21 -37.52074 -57.75203 7005 ft 325 kts 160°
2026-04-24 21:21 -37.54157 -57.74102 7003 ft 324 kts 160°
2026-04-24 21:21 -37.56238 -57.73001 7004 ft 324 kts 160°
2026-04-24 21:21 -37.58303 -57.71906 6976 ft 319 kts 160°
2026-04-24 21:22 -37.60321 -57.70831 6912 ft 309 kts 160°
2026-04-24 21:22 -37.62261 -57.69791 6830 ft 297 kts 160°
2026-04-24 21:22 -37.64124 -57.68784 6751 ft 287 kts 160°
2026-04-24 21:22 -37.65327 -57.68130 6704 ft 280 kts 160°
2026-04-24 21:23 -37.67664 -57.66851 6568 ft 269 kts 160°
2026-04-24 21:23 -37.69374 -57.65925 6333 ft 266 kts 162°
2026-04-24 21:23 -37.71106 -57.65097 6043 ft 265 kts 164°
2026-04-24 21:23 -37.72814 -57.64310 5803 ft 264 kts 164°
2026-04-24 21:24 -37.74535 -57.63523 5542 ft 262 kts 164°
2026-04-24 21:24 -37.76260 -57.62797 5287 ft 260 kts 167°
2026-04-24 21:24 -37.77983 -57.62125 5038 ft 259 kts 167°
2026-04-24 21:24 -37.79701 -57.61466 4790 ft 257 kts 167°
2026-04-24 21:25 -37.81413 -57.60814 4523 ft 256 kts 167°
2026-04-24 21:25 -37.83114 -57.60187 4288 ft 253 kts 170°
2026-04-24 21:25 -37.84823 -57.59681 4029 ft 252 kts 171°
2026-04-24 21:25 -37.86546 -57.59229 3690 ft 254 kts 175°
2026-04-24 21:26 -37.88308 -57.59178 3303 ft 255 kts 188°
2026-04-24 21:26 -37.90073 -57.59285 3114 ft 251 kts 186°
2026-04-24 21:26 -37.91815 -57.59440 2772 ft 253 kts 190°
2026-04-24 21:26 -37.93585 -57.59729 2479 ft 252 kts 191°
2026-04-24 21:27 -37.95244 -57.59899 2690 ft 231 kts 182°
2026-04-24 21:27 -37.96820 -57.59660 2588 ft 224 kts 166°
2026-04-24 21:27 -37.98185 -57.58849 2560 ft 211 kts 147°
2026-04-24 21:27 -37.98922 -57.58079 2496 ft 204 kts 138°
2026-04-24 21:28 -38.00213 -57.56340 2068 ft 200 kts 132°
2026-04-24 21:28 -38.01089 -57.55062 1875 ft 188 kts 129°
2026-04-24 21:28 -38.01662 -57.53659 1691 ft 173 kts 98°
2026-04-24 21:28 -38.01591 -57.52264 1705 ft 151 kts 58°
2026-04-24 21:29 -38.00914 -57.51292 1776 ft 148 kts 28°
2026-04-24 21:29 -38.00047 -57.50669 1682 ft 143 kts 20°
2026-04-24 21:29 -37.99150 -57.50243 1621 ft 133 kts
2026-04-24 21:29 -37.98226 -57.50305 1515 ft 137 kts 338°
2026-04-24 21:30 -37.97391 -57.50910 1299 ft 141 kts 328°
2026-04-24 21:30 -37.96599 -57.51622 1108 ft 137 kts 319°
2026-04-24 21:30 -37.96150 -57.52175 960 ft 136 kts 313°
2026-04-24 21:30 -37.95563 -57.53114 669 ft 138 kts 306°
2026-04-24 21:31 -37.95066 -57.54157 511 ft 136 kts 306°
2026-04-24 21:31 -37.94520 -57.55148 329 ft 139 kts 307°
2026-04-24 21:31 -37.94002 -57.56191 121 ft 139 kts 304°
2026-04-24 21:31 -37.93510 -57.57151 52 ft 113 kts 303°
2026-04-24 21:32 -37.93236 -57.57692 49 ft 22 kts 304°
2026-04-24 21:32 -37.93161 -57.57841 51 ft 13 kts 299°
2026-04-24 21:32 -37.93136 -57.57931 53 ft 8 kts 262°
2026-04-24 21:32 -37.93159 -57.57976 53 ft 1 kts 225°
2026-04-24 21:33 -37.93168 -57.57988 47 ft 2 kts 226°
2026-04-24 21:33 -37.93177 -57.57999 50 ft 1 kts 218°
2026-04-24 21:33 -37.93184 -57.58005 53 ft 1 kts 214°
2026-04-24 21:33 -37.93199 -57.58017 53 ft 4 kts 213°
2026-04-24 21:34 -37.93217 -57.58030 53 ft 3 kts 209°
2026-04-24 21:34 -37.93250 -57.58040 51 ft 7 kts 178°
2026-04-24 21:34 -37.93294 -57.58026 53 ft 4 kts 167°
2026-04-24 21:34 -37.93314 -57.58022 53 ft 2 kts 176°
2026-04-24 21:35 -37.93329 -57.58022 53 ft 2 kts 180°
2026-04-24 21:35 -37.93350 -57.58032 53 ft 0 kts 223°
2026-04-24 21:35 -37.93353 -57.58042 53 ft 2 kts 250°
2026-04-24 21:35 -37.93353 -57.58043 53 ft 0 kts 255°